Location: Unspecified
(0.0000°N, 0.0000°E)
Time: 22:45:15
(UTC+01:00)

Cosmos 2228 - Visible Passes

Search period start: 03 December 2016 00:00
Search period end: 13 December 2016 00:00
Orbit: 590 x 621 km, 82.5° (Epoch: 03 December)

Date Brightness Start Highest point End Pass type
(mag) Time Alt. Az. Time Alt. Az. Time Alt. Az.
05 Dec 5.8 21:07:12 10° S 21:07:12 10° S 21:07:12 10° S visible
06 Dec 5.6 21:19:03 16° SSW 21:19:03 16° SSW 21:20:03 10° SSW visible
07 Dec 5.7 21:30:45 18° SW 21:30:45 18° SW 21:32:23 10° SSW visible
08 Dec 4.3 20:05:31 23° ESE 20:05:31 23° ESE 20:08:10 10° SE visible
08 Dec 6.1 21:42:16 12° W 21:42:16 12° W 21:43:37 10° WSW visible
09 Dec 3.2 20:16:47 43° NE 20:17:35 49° E 20:21:51 10° SSE visible
10 Dec 3.1 20:27:44 21° N 20:30:36 80° W 20:35:01 10° S visible
11 Dec 4.4 20:39:33 10° NNW 20:43:38 38° W 20:47:44 10° SSW visible
12 Dec 4.7 19:16:45 10° NE 19:19:22 16° E 19:22:01 10° ESE visible
12 Dec 5.6 20:53:28 10° NW 20:56:39 20° W 20:59:51 10° SW visible
